Theta_e
316 317 319 320 320 317 315 315 315 315 315 315 314 314 313 314 319 318 317 320 320 321 320 317 319 320 320 319 319 316 315 313 312 310 309 308 306 305 304 301 299 299 298
314 315 316 316 318 318 317 317 316 315 315 314 314 313 315 318 318 319 320 320 321 322 321 320 318 318 319 318 317 315 314 312 311 310 308 306 306 304 302 300 299 296 296
319 316 315 315 315 315 318 317 315 315 315 315 314 315 316 317 318 319 320 321 320 321 320 319 319 320 319 317 315 313 312 311 310 308 306 304 303 301 300 298 296 295 293
322 319 318 318 315 315 319 317 317 316 315 316 317 317 318 320 321 321 322 322 321 319 321 319 318 319 319 315 312 312 310 309 308 305 304 302 300 299 297 295 293 290 288
325 323 322 321 322 318 318 318 317 319 320 321 321 322 322 322 322 322 322 322 320 321 319 318 318 317 316 313 311 309 308 305 304 303 301 300 297 296 294 291 288 286 286
324 324 324 322 320 321 322 322 322 321 321 322 323 323 323 323 322 323 322 321 321 318 319 318 314 313 311 310 308 305 305 302 300 299 297 296 294 291 288 285 285 284 285
323 323 323 323 322 322 321 321 322 322 322 323 322 322 322 321 323 321 321 319 318 318 314 312 311 309 306 304 303 301 300 299 298 296 293 290 288 285 284 284 284 283 284
323 323 323 323 323 323 323 322 322 323 322 322 321 322 322 320 319 320 319 318 316 312 309 307 307 304 303 302 300 298 296 294 292 290 287 285 284 284 283 283 283 283 283
323 323 324 324 323 322 321 322 322 323 321 321 320 320 319 317 316 314 313 313 310 308 305 303 301 300 299 298 295 293 291 289 286 284 284 283 283 283 282 282 282 282 283
324 325 325 325 324 323 322 322 321 321 319 318 318 315 314 312 308 307 307 307 306 304 302 300 298 297 295 293 291 287 285 284 283 283 282 282 282 282 281 281 281 281 281
324 323 323 322 322 322 322 320 318 319 317 314 313 311 309 307 305 303 302 302 302 301 298 296 295 294 292 289 286 284 283 283 282 282 282 281 281 281 281 281 281 280 279
324 322 322 322 321 320 318 317 315 314 312 310 309 307 304 303 302 300 300 299 298 297 295 293 292 290 287 285 283 282 282 282 281 281 280 281 282 281 281 280 279 279 278
322 321 319 318 316 315 314 312 311 310 309 308 306 304 302 300 299 298 297 297 296 294 292 291 289 286 284 282 282 282 281 281 281 280 280 282 281 279 278 278 278 278 278
317 315 314 313 312 310 309 308 307 307 305 304 302 302 300 299 297 296 295 293 292 291 290 288 285 283 282 281 280 280 279 279 278 278 278 278 277 277 278 278 277 277 277
313 311 310 308 307 306 305 304 304 303 302 301 300 299 297 296 294 292 291 291 290 289 287 283 282 282 281 280 279 278 278 277 278 278 277 277 278 277 275 275 275 275 275
310 308 307 306 304 303 302 300 298 298 298 297 296 294 293 291 290 290 288 287 284 283 283 283 283 281 280 279 278 277 277 276 275 276 275 274 274 274 273 272 273 272 272
308 306 305 303 300 299 297 296 296 292 293 293 292 291 290 288 286 285 284 284 283 282 281 280 279 278 278 276 275 274 273 273 274 273 271 270 271 270 270 270 270 270 271
303 300 298 296 295 294 293 293 292 291 290 288 286 286 285 284 284 283 282 281 280 279 278 277 276 275 274 273 272 272 271 270 270 270 269 269 269 268 268 269 269 269 269
296 295 294 292 292 292 291 290 289 288 286 285 284 283 282 281 280 280 279 278 277 275 274 273 272 272 271 271 270 269 269 269 269 269 268 268 267 267 267 268 268 268 268
293 292 292 291 289 289 288 287 286 285 283 282 281 280 279 278 278 277 276 275 274 273 273 271 270 269 269 268 268 267 267 267 266 266 266 266 266 266 266 266 267 267 268
289 289 289 288 287 286 285 284 283 281 280 279 278 277 276 276 275 274 273 273 272 271 270 270 269 269 268 267 266 265 265 265 265 266 266 266 266 266 266 266 266 267 267
288 287 286 285 284 283 282 281 279 278 277 276 275 274 274 273 272 271 271 270 269 269 268 268 267 267 267 266 266 266 266 266 266 266 266 267 267 266 266 265 266 266 266
285 285 284 282 280 278 278 277 276 275 274 273 273 272 271 271 270 269 269 268 268 268 267 267 267 267 266 266 266 266 266 266 266 266 266 267 267 266 265 266 266 266 266
281 280 279 278 276 275 274 273 273 272 271 271 270 270 270 269 269 268 268 268 268 267 267 267 267 266 266 266 266 266 266 266 266 267 266 267 267 267 267 267 267 268 268
276 275 274 273 273 272 272 271 271 271 270 270 269 269 268 268 268 268 268 267 267 267 267 267 267 267 267 267 266 266 267 267 266 266 267 267 267 268 268 268 269 269 269
273 272 272 271 271 271 270 270 270 269 269 269 268 268 268 268 268 267 267 267 267 267 267 267 267 267 267 267 267 267 267 267 267 267 267 268 268 268 268 268 269 269 269
Wind_Speed
29 30 32 35 38 41 42 44 46 44 44 44 43 41 42 41 38 37 36 38 44 42 43 39 36 37 34 30 34 32 33 26 24 21 21 22 19 20 22 23 22 23 25
32 32 31 28 30 33 36 36 40 44 45 46 44 44 42 42 40 37 38 43 37 36 35 37 38 38 34 30 27 33 30 25 23 24 24 21 21 21 23 26 26 20 22
35 34 33 36 36 33 24 36 40 40 42 43 44 45 45 45 41 42 43 41 31 28 27 28 30 32 32 28 31 30 25 24 23 24 22 21 21 21 25 24 21 23 26
38 39 37 36 39 37 32 40 42 42 44 45 45 46 46 42 44 41 36 32 35 27 32 28 30 31 28 26 28 26 23 25 24 21 21 20 20 24 22 23 26 27 28
38 40 42 41 37 38 42 45 43 37 35 33 32 34 38 39 38 36 33 31 27 30 29 27 28 25 27 25 24 25 25 23 21 20 20 20 21 21 22 24 27 26 27
30 31 32 39 44 44 43 43 43 40 38 36 36 34 33 34 32 34 33 30 29 27 28 27 24 23 23 24 24 21 20 18 17 17 16 19 21 24 24 24 25 24 18
24 25 26 28 33 37 41 44 42 39 34 31 30 26 25 28 30 30 29 25 24 25 21 20 21 21 21 20 18 18 16 16 16 16 20 22 21 21 22 23 24 23 23
24 25 25 26 28 28 29 30 29 27 27 23 24 24 25 25 25 24 23 21 19 17 17 17 17 17 16 15 14 14 14 15 17 19 19 19 19 20 22 23 24 25 26
26 24 22 22 24 24 22 22 24 23 23 22 22 20 18 17 18 15 14 15 14 15 16 15 13 13 12 10 11 14 15 17 17 18 18 18 19 20 21 21 21 23 24
22 20 18 16 15 16 18 19 19 18 19 19 17 15 14 14 11 9 8 9 12 13 12 10 9 8 8 9 12 13 15 16 16 16 17 18 18 18 17 20 23 25 25
16 15 15 14 13 13 15 15 14 16 16 16 15 14 14 13 13 12 11 9 9 9 8 8 9 10 11 13 14 14 15 16 17 17 17 17 18 18 19 22 23 25 27
20 17 16 14 13 12 10 12 13 13 14 15 15 17 15 14 13 14 12 10 8 7 8 8 9 11 14 15 16 17 17 18 18 18 17 18 20 23 24 23 24 25 27
20 18 15 12 9 9 10 11 11 12 13 15 15 16 15 13 12 11 10 10 11 8 7 8 11 14 16 16 18 20 20 19 21 20 20 23 25 24 24 24 25 27 29
18 15 13 13 13 13 12 10 9 11 13 15 14 13 11 10 9 8 8 7 6 7 9 11 13 16 17 17 18 19 19 19 19 20 21 23 23 23 25 27 28 29 31
21 20 19 17 15 14 13 13 13 14 12 11 10 9 9 8 7 5 5 7 10 12 14 12 13 14 16 18 19 19 19 20 21 22 23 24 25 25 25 26 25 26 27
21 20 16 15 17 18 19 19 16 12 11 8 8 6 6 4 3 7 10 12 13 13 13 15 16 16 17 18 18 18 19 19 19 22 23 22 22 24 24 23 23 20 24
19 21 21 18 18 18 17 14 14 14 9 6 4 2 4 4 5 7 9 11 12 12 13 14 15 16 16 15 13 14 15 19 24 24 23 21 22 22 22 19 18 19 21
20 21 21 21 20 19 17 15 12 9 6 5 3 1 1 3 5 7 8 9 12 13 13 12 12 13 13 14 15 16 16 19 21 21 20 20 23 21 20 19 19 20 21
21 24 22 20 17 14 11 9 8 6 5 4 2 1 2 4 6 8 10 11 11 9 9 9 10 11 11 13 16 19 21 23 25 25 23 23 22 21 20 19 20 21 23
22 20 17 15 13 11 10 8 7 6 6 5 4 2 4 6 8 10 11 12 12 12 14 14 13 15 18 20 20 19 20 20 20 20 21 20 19 18 19 20 19 20 19
18 16 13 13 12 11 10 8 7 6 5 4 2 1 4 7 8 10 12 14 15 16 17 19 21 23 24 23 21 20 21 23 24 25 23 21 20 20 20 19 18 19 20
15 15 13 12 11 10 9 8 6 5 4 3 3 5 7 10 11 12 13 14 16 18 20 21 23 24 25 26 26 27 27 27 26 23 22 22 21 20 19 18 18 18 19
13 11 10 10 10 9 8 7 5 5 4 5 6 8 10 11 12 13 14 15 17 18 20 21 23 23 23 23 23 23 25 24 23 22 22 22 22 21 19 19 19 20 20
11 10 9 9 8 7 6 6 6 6 6 6 7 8 9 10 12 13 15 16 18 19 19 20 21 21 22 22 22 21 21 21 20 20 21 23 24 23 22 21 21 23 24
9 9 8 9 8 8 8 8 8 7 7 7 7 8 10 11 13 15 16 17 17 18 18 19 20 21 21 20 19 18 17 17 18 20 22 24 25 24 22 23 23 24 25
10 10 11 11 11 10 10 9 8 8 8 8 9 10 12 13 14 15 16 17 18 19 20 19 19 19 18 16 15 15 16 17 19 20 23 25 25 24 23 23 24 24 24
Wind_Direction
215 213 213 215 216 218 220 223 226 230 234 239 243 248 252 255 260 266 269 276 280 278 268 272 277 280 276 280 270 261 240 243 237 248 239 243 251 264 269 276 273 269 267
217 218 217 218 219 222 228 234 233 234 237 239 243 249 253 260 265 265 264 268 280 274 277 260 264 269 269 291 259 238 234 238 243 248 247 249 260 261 265 273 279 272 274
219 218 220 218 214 214 228 239 239 243 248 252 253 257 262 265 264 267 272 266 271 268 270 273 267 270 276 272 241 233 234 237 243 246 246 256 259 264 272 277 275 278 283
224 224 220 225 226 220 217 235 240 242 248 253 258 261 262 266 267 269 266 256 262 269 275 269 268 266 269 252 238 235 236 240 243 244 254 258 266 277 275 278 283 288 290
229 232 230 225 224 223 234 242 250 256 260 260 261 262 260 263 268 263 255 264 265 266 273 269 263 256 253 239 236 237 237 240 244 249 258 268 277 275 277 284 289 292 294
226 230 233 233 232 229 233 242 249 255 262 267 271 269 268 270 273 261 257 265 266 259 261 259 250 244 236 231 232 234 240 243 253 262 275 275 278 280 284 287 293 297 302
227 231 230 230 230 234 237 243 252 258 263 264 264 266 269 271 264 260 260 251 255 256 243 232 230 225 222 226 226 229 242 251 265 279 271 273 279 282 288 293 297 297 298
225 227 228 230 233 234 238 242 248 251 258 249 252 253 258 256 253 254 256 253 237 228 225 223 224 224 224 228 239 253 270 280 276 272 276 280 283 287 291 293 297 298 301
220 222 223 225 230 233 236 242 246 240 248 245 244 240 242 241 243 238 237 233 220 210 206 208 212 220 233 254 276 289 280 275 278 281 283 285 287 290 292 293 299 301 303
208 208 209 211 217 221 225 229 229 231 235 234 227 218 215 210 196 186 193 204 204 202 204 216 232 250 269 287 282 281 282 283 288 290 290 289 290 287 290 295 295 298 300
181 178 178 184 186 195 205 213 231 227 220 209 203 191 187 188 176 174 178 194 205 211 223 240 260 276 290 287 283 281 282 286 287 290 292 293 293 297 295 293 295 292 290
161 162 168 177 183 188 213 229 212 202 195 185 187 176 174 175 179 180 192 204 211 227 243 257 279 295 292 294 294 296 299 300 298 295 297 298 298 297 294 291 288 287 287
159 158 162 172 185 201 195 187 184 186 191 181 181 175 171 176 186 196 206 222 234 241 269 294 297 294 298 298 297 298 299 297 295 291 291 298 296 294 296 295 295 293 289
152 154 158 164 163 160 159 160 171 181 182 178 175 176 177 186 206 224 234 246 268 291 303 303 300 295 292 293 295 294 293 292 292 294 299 298 296 299 302 301 299 298 297
141 143 141 143 150 153 153 152 162 163 172 185 195 197 199 197 203 221 258 278 293 302 308 296 292 296 295 293 292 291 292 295 299 299 299 299 300 301 301 299 300 300 299
144 144 150 157 159 158 157 155 155 162 177 177 168 156 164 182 251 287 301 307 305 300 299 299 301 300 297 294 294 295 297 301 301 302 302 301 300 300 300 298 301 298 299
156 154 156 162 157 148 144 142 143 121 131 144 151 213 261 285 300 296 293 295 298 303 307 309 306 303 301 301 300 301 302 302 303 304 304 301 301 300 301 300 301 300 300
159 147 143 140 136 130 125 119 116 113 116 107 92 92 283 278 282 287 294 299 308 311 312 312 311 309 308 304 303 303 304 304 305 304 303 302 301 299 298 296 297 297 299
134 129 129 128 123 119 114 111 111 112 115 123 136 263 261 276 289 298 304 309 315 321 319 318 315 312 306 304 302 301 301 302 301 301 303 301 299 297 294 294 297 297 300
117 119 123 120 115 112 110 114 118 125 137 145 164 216 271 293 304 314 320 324 322 317 313 311 309 305 303 303 303 303 303 301 301 303 301 299 298 295 293 295 296 296 298
111 112 111 113 112 112 113 114 118 127 132 136 138 311 311 315 323 323 322 320 317 314 312 310 309 307 307 306 305 303 301 301 302 303 301 298 298 296 297 295 294 296 297
106 106 107 105 105 107 107 106 104 99 89 61 14 338 331 328 329 327 324 321 319 317 315 314 312 311 310 309 308 308 307 306 307 305 301 300 300 299 297 295 296 299 300
97 98 99 100 98 96 96 90 80 62 38 11 349 337 333 333 330 327 325 324 322 320 318 316 315 314 313 312 311 308 306 306 305 305 304 304 303 300 299 296 296 302 303
89 95 94 93 88 80 72 62 50 35 21 7 356 349 344 340 335 332 330 328 326 324 321 319 318 317 316 316 315 312 309 307 305 306 305 304 304 304 300 297 300 305 309
84 85 84 81 75 68 61 56 50 42 31 19 8 357 349 343 338 334 330 327 326 326 326 324 323 320 319 317 314 311 310 308 307 306 304 303 302 301 299 300 302 305 311
83 80 77 75 71 67 62 57 50 39 26 13 2 354 348 341 335 333 332 332 332 331 330 329 326 323 322 321 320 319 315 311 308 306 303 302 301 300 300 300 301 301 306